Wind_Speed
7 7 7 7 7 8 9 9 10 9 8 8 9 8 8 9 9 10 10 10 11 11 10 9 10 10 10 10 9 9 9 8 7 6 6 5 3 3 2 2 2 2 3 3
7 7 7 7 7 7 8 8 9 9 9 9 9 9 8 9 9 10 10 10 11 11 11 10 10 10 10 10 9 9 8 8 7 7 6 5 4 4 3 2 2 2 3 3
8 7 7 7 7 7 8 8 8 8 8 8 8 9 9 8 9 9 10 10 11 11 11 10 11 10 9 9 9 9 9 8 7 7 6 6 5 4 3 2 1 1 2 3
7 7 7 7 7 7 6 7 7 7 8 8 8 8 8 8 8 9 9 9 10 10 10 10 10 10 9 8 8 8 8 8 7 7 6 5 5 4 4 3 2 1 2 3
7 6 6 6 6 7 7 7 7 7 7 7 7 7 8 8 8 8 9 10 10 10 10 10 10 10 10 9 9 9 9 8 7 7 6 6 5 5 4 3 2 2 2 3
8 7 7 6 6 7 7 8 7 7 7 7 7 8 8 8 8 8 9 10 11 11 12 12 11 10 10 10 10 9 9 8 8 7 7 7 6 5 5 4 3 3 3 3
8 8 8 7 6 6 7 8 8 7 7 6 7 8 7 7 7 7 8 9 10 12 12 13 13 12 12 12 11 10 9 9 9 8 8 7 6 6 6 5 5 4 3 4
9 8 8 7 7 6 6 7 7 7 7 6 6 6 5 6 6 6 7 8 9 10 11 11 12 12 11 12 12 11 11 11 10 9 8 8 8 7 7 6 5 5 4 5
9 9 9 9 8 7 7 7 7 8 7 6 6 6 5 5 6 6 6 7 9 10 11 11 11 11 11 12 12 12 12 11 11 10 9 9 9 8 8 7 7 6 6 6
10 10 10 9 9 8 8 8 8 8 7 6 6 6 5 6 6 6 6 7 9 10 11 11 10 11 11 12 12 12 12 13 12 11 11 11 10 9 9 9 8 8 8 7
12 11 10 10 9 9 9 9 9 8 8 7 7 6 6 7 7 7 7 7 9 9 10 11 10 11 12 12 12 12 13 13 12 11 12 11 11 11 11 11 10 10 9 8
13 12 11 10 10 10 10 10 10 9 9 8 8 7 7 7 7 7 7 8 9 10 10 10 10 10 11 11 12 12 12 13 12 12 12 12 12 12 12 12 11 11 10 10
14 13 13 12 12 11 11 11 11 10 10 9 8 7 7 8 8 7 7 7 7 9 9 9 10 10 11 11 12 12 12 12 12 12 12 13 13 12 12 12 12 11 11 11
15 14 13 12 12 12 12 11 11 11 11 10 8 7 6 7 8 7 7 7 6 7 9 9 10 10 10 11 12 12 11 11 11 11 12 12 13 13 13 13 13 13 13 12
17 16 15 14 14 13 13 12 12 12 11 10 8 8 7 6 7 7 7 7 7 7 8 9 10 10 10 10 10 11 11 11 11 11 12 12 13 13 13 14 14 14 14 14
19 18 17 16 15 15 14 13 13 12 11 10 9 8 8 8 8 8 8 8 8 8 8 9 9 10 10 11 10 10 11 12 12 12 12 12 13 13 14 14 15 15 15 15
20 19 19 17 16 16 15 15 14 13 12 11 10 9 10 10 9 9 9 9 9 9 9 9 10 11 11 11 11 11 12 12 12 12 13 13 13 13 14 15 15 16 16 17
22 20 20 19 18 18 15 14 15 14 13 12 11 11 11 10 10 10 10 10 10 10 10 11 11 11 12 12 12 12 12 12 12 12 13 13 14 15 15 15 16 17 17 18
23 23 22 21 20 18 16 15 15 15 13 12 12 11 11 11 11 11 11 10 11 11 12 12 12 12 12 12 12 13 13 12 12 13 14 14 15 15 16 16 17 17 17 18
24 24 24 23 22 20 16 16 16 15 14 14 13 12 12 12 11 11 11 11 11 11 12 12 12 12 12 12 12 12 13 13 13 13 14 14 15 15 16 16 17 16 17 17
25 25 25 23 22 20 18 17 16 16 14 14 14 14 13 12 12 12 12 11 12 12 11 12 13 13 13 13 13 13 13 13 13 14 14 14 15 15 16 16 16 16 16 17
26 26 25 24 23 21 20 19 18 17 16 15 15 15 14 13 13 13 13 12 12 12 12 12 12 13 13 13 13 13 13 14 14 14 14 14 15 15 16 16 16 17 17 18
29 27 26 25 24 22 22 21 19 18 18 17 16 15 15 14 14 14 14 13 13 13 13 13 13 13 14 14 14 14 14 14 15 15 15 16 16 16 17 17 17 18 19 20
29 29 28 27 25 25 24 23 21 20 20 18 17 16 16 15 15 16 15 15 15 14 14 14 14 14 14 14 15 15 15 15 16 16 16 16 16 17 17 17 18 19 20 21
30 30 29 28 27 27 25 24 23 23 22 20 18 18 17 17 16 17 17 16 16 15 15 15 15 16 16 16 16 16 17 17 17 17 17 17 17 18 18 19 19 20 21 22
31 31 30 29 27 27 27 25 25 24 23 23 22 20 19 18 18 18 18 18 17 17 17 17 17 17 17 18 18 18 18 18 19 18 18 18 18 19 20 20 21 22 22 23
Wind_Direction
278 276 273 274 268 261 257 258 254 253 254 253 251 249 248 248 242 241 237 235 230 230 230 232 233 229 223 216 217 222 226 228 225 220 217 219 228 245 259 289 309 335 348 358
271 272 273 274 271 265 258 256 255 255 253 251 250 249 252 249 245 242 236 233 227 229 232 234 232 229 219 216 220 219 224 228 221 216 218 228 236 243 249 272 283 319 341 357
269 270 271 274 271 266 260 257 256 254 251 251 250 248 254 253 247 240 236 233 229 231 230 233 228 221 222 221 222 224 224 218 213 215 221 229 235 237 236 250 270 318 344 0
274 271 272 273 269 265 259 256 259 257 250 251 252 248 250 252 245 236 231 230 229 229 222 221 217 217 222 219 217 218 216 210 209 217 225 229 233 235 233 238 250 301 332 345
271 269 271 267 264 265 256 251 255 257 253 251 252 251 244 246 238 233 230 230 231 225 216 214 214 217 219 216 215 211 210 210 211 215 225 228 228 230 224 228 246 283 311 328
268 265 264 263 263 263 255 249 253 257 262 260 256 259 250 243 232 231 232 232 231 222 217 218 221 222 222 219 214 211 209 208 210 217 225 227 228 227 224 229 245 269 296 313
266 262 258 256 259 261 254 249 251 257 265 271 262 262 260 245 237 236 238 237 229 221 220 222 224 225 225 223 220 217 216 216 217 224 229 228 232 233 233 241 248 257 279 298
270 260 256 253 255 260 256 252 252 258 266 268 262 262 261 251 249 246 244 238 229 224 223 224 222 224 225 224 225 224 223 222 223 229 237 237 240 240 242 247 250 258 269 285
265 259 257 253 251 253 254 256 257 261 265 267 267 266 264 259 253 247 243 235 229 226 225 225 224 227 228 226 227 227 227 226 225 232 236 241 246 246 246 248 257 265 271 280
260 256 251 249 249 250 252 254 259 263 262 261 264 263 257 257 257 255 251 242 233 231 227 226 227 228 228 227 227 229 231 228 228 234 237 242 247 248 249 253 260 268 271 274
252 255 249 248 251 253 255 256 259 263 266 270 270 267 263 258 261 265 262 252 242 238 232 228 229 229 229 230 229 230 229 227 229 236 240 245 249 252 257 256 258 264 268 272
248 251 250 248 251 252 252 254 257 260 267 273 276 271 265 260 259 263 264 256 247 240 237 234 233 232 233 233 232 232 231 230 235 242 243 247 251 254 258 257 258 261 265 268
246 247 248 246 247 250 253 253 255 258 262 266 270 275 273 258 252 255 257 260 253 242 238 236 235 235 235 234 233 230 232 234 239 245 247 250 251 255 258 256 254 258 263 267
245 245 247 249 250 250 253 254 255 257 260 265 268 270 270 259 248 255 259 259 258 245 239 236 234 234 232 233 234 234 235 238 243 249 250 251 252 257 259 257 255 258 263 268
245 244 244 244 245 246 250 252 255 258 262 265 265 262 256 253 250 250 256 258 260 256 246 239 235 234 236 238 237 237 240 245 250 254 253 254 254 257 260 259 259 263 266 269
246 246 244 244 245 246 247 249 252 256 259 260 258 254 252 251 248 247 250 253 256 258 253 242 239 240 244 246 248 247 248 249 252 254 255 258 259 259 261 262 263 265 268 271
243 246 245 243 244 246 245 249 253 256 256 255 254 253 252 252 249 248 250 252 252 255 254 248 244 244 245 247 250 251 253 251 253 255 257 260 262 262 264 265 266 270 273 275
242 244 244 244 244 246 247 250 253 254 253 254 252 250 251 253 250 251 255 255 256 256 255 254 252 252 250 249 251 251 251 252 255 259 261 263 264 266 269 269 272 274 276 278
241 242 243 245 246 248 247 248 251 252 251 252 251 251 252 253 252 254 256 255 256 257 255 252 251 250 251 251 252 251 250 254 259 262 263 266 267 270 272 273 274 277 279 280
238 240 243 243 244 244 243 246 249 251 249 249 250 250 253 253 253 254 254 252 256 258 257 254 252 251 253 252 254 251 253 257 261 264 266 268 268 270 272 275 276 279 281 282
236 238 240 241 243 242 241 244 246 247 248 248 250 252 254 254 252 252 251 252 256 257 258 257 254 252 254 254 254 254 256 259 264 268 270 270 270 271 273 275 279 282 283 284
236 237 239 240 242 241 241 243 244 247 246 245 247 250 251 252 251 251 252 253 256 257 258 259 257 255 257 257 255 255 257 260 265 269 272 273 274 275 275 277 280 282 283 284
238 239 240 241 242 241 240 241 243 244 244 244 245 248 249 249 250 251 253 253 255 257 258 258 257 256 257 256 256 258 260 264 269 270 273 274 275 276 277 279 281 283 284 286
238 239 240 240 240 241 241 241 242 243 243 244 244 247 250 250 249 249 250 250 253 257 257 258 259 259 259 258 259 262 266 269 272 273 274 274 275 277 279 281 283 285 287 288
238 239 241 242 241 241 241 241 242 243 243 244 245 247 250 252 252 253 254 253 254 256 256 257 259 260 260 262 263 266 269 271 271 272 274 275 276 277 278 280 282 286 288 288
238 240 242 243 243 243 240 241 242 243 243 244 245 247 249 252 255 257 257 254 254 256 257 258 261 262 262 264 265 268 269 271 272 273 274 275 276 278 279 280 283 286 288 289
Height
5846 5847 5846 5846 5846 5846 5846 5847 5847 5848 5848 5849 5849 5850 5851 5851 5852 5853 5854 5855 5856 5857 5858 5859 5860 5862 5863 5864 5865 5866 5867 5868 5869 5870 5871 5872 5872 5872 5872 5872 5871 5871 5870 5869
5846 5846 5845 5844 5844 5844 5845 5846 5846 5847 5847 5848 5848 5849 5849 5850 5850 5851 5852 5853 5854 5855 5856 5858 5859 5860 5861 5862 5863 5865 5866 5867 5868 5869 5870 5871 5871 5871 5871 5871 5871 5870 5870 5869
5845 5845 5844 5844 5844 5844 5844 5845 5845 5845 5846 5846 5847 5848 5848 5849 5849 5850 5851 5852 5853 5854 5855 5856 5857 5858 5860 5861 5862 5863 5865 5866 5867 5868 5869 5870 5870 5870 5871 5871 5870 5870 5869 5869
5843 5843 5843 5843 5843 5843 5843 5843 5844 5844 5845 5845 5846 5847 5847 5847 5848 5848 5849 5850 5851 5852 5853 5854 5856 5857 5859 5860 5861 5862 5864 5865 5866 5867 5868 5869 5870 5870 5870 5870 5870 5870 5869 5869
5843 5842 5842 5842 5842 5842 5842 5842 5843 5843 5844 5845 5845 5846 5847 5846 5846 5847 5848 5849 5850 5851 5852 5853 5854 5856 5857 5858 5860 5861 5863 5864 5865 5866 5867 5868 5868 5869 5869 5869 5869 5869 5869 5868
5842 5841 5841 5841 5841 5841 5841 5842 5842 5842 5843 5844 5844 5844 5845 5845 5845 5846 5846 5847 5848 5849 5851 5852 5853 5855 5856 5858 5859 5860 5862 5863 5864 5865 5866 5867 5867 5868 5868 5868 5868 5868 5868 5868
5840 5840 5840 5840 5840 5840 5841 5842 5842 5842 5842 5843 5843 5843 5844 5844 5844 5844 5845 5845 5846 5848 5849 5851 5852 5854 5855 5856 5858 5859 5860 5862 5863 5864 5865 5866 5866 5867 5867 5867 5868 5868 5867 5867
5838 5839 5839 5839 5839 5839 5840 5841 5842 5842 5842 5842 5842 5842 5843 5843 5843 5843 5843 5844 5845 5846 5848 5849 5850 5852 5853 5855 5856 5857 5859 5860 5862 5863 5864 5864 5865 5865 5866 5866 5866 5867 5867 5866
5837 5838 5838 5838 5838 5839 5839 5840 5840 5841 5841 5841 5841 5842 5842 5842 5842 5842 5843 5843 5843 5845 5846 5848 5849 5850 5852 5853 5854 5855 5857 5858 5860 5861 5862 5863 5863 5864 5864 5865 5865 5865 5865 5865
5835 5836 5836 5836 5837 5837 5838 5839 5839 5839 5840 5840 5841 5841 5842 5841 5841 5842 5842 5842 5842 5843 5845 5846 5847 5848 5850 5851 5852 5854 5855 5856 5858 5859 5860 5861 5862 5862 5863 5863 5863 5864 5864 5863
5832 5834 5835 5835 5835 5836 5837 5838 5838 5838 5839 5839 5839 5842 5840 5840 5840 5840 5840 5841 5841 5842 5843 5844 5845 5846 5848 5849 5850 5851 5853 5854 5856 5857 5858 5858 5859 5860 5860 5861 5861 5862 5862 5861
5830 5831 5832 5833 5834 5834 5835 5836 5837 5838 5838 5837 5838 5842 5838 5838 5838 5839 5839 5839 5839 5840 5841 5842 5843 5844 5846 5847 5848 5849 5851 5852 5853 5854 5855 5856 5857 5858 5858 5858 5859 5859 5859 5859
5827 5828 5829 5830 5833 5833 5833 5834 5834 5835 5836 5836 5836 5839 5837 5836 5837 5837 5837 5837 5838 5838 5839 5840 5842 5843 5844 5845 5846 5848 5849 5850 5851 5852 5853 5853 5854 5855 5855 5856 5856 5857 5857 5857
5823 5825 5827 5828 5829 5830 5830 5831 5832 5833 5833 5834 5835 5835 5835 5835 5835 5835 5836 5836 5836 5837 5838 5839 5840 5841 5842 5843 5844 5845 5846 5847 5848 5849 5850 5851 5851 5852 5853 5853 5853 5854 5854 5854
5819 5821 5822 5824 5825 5827 5828 5829 5830 5830 5831 5832 5833 5833 5834 5833 5834 5834 5834 5835 5835 5835 5836 5837 5838 5839 5840 5841 5842 5843 5844 5845 5846 5846 5847 5848 5848 5849 5849 5850 5850 5850 5851 5851
5815 5817 5819 5821 5822 5823 5825 5826 5827 5828 5829 5830 5830 5832 5832 5832 5832 5832 5833 5833 5834 5834 5835 5835 5836 5837 5838 5839 5839 5840 5841 5842 5843 5844 5844 5845 5845 5846 5846 5846 5847 5847 5847 5847
5810 5813 5815 5817 5818 5819 5821 5823 5824 5825 5826 5827 5828 5830 5829 5830 5830 5830 5831 5831 5832 5832 5832 5833 5833 5834 5835 5836 5837 5837 5838 5839 5840 5841 5841 5842 5842 5842 5843 5843 5843 5843 5843 5843
5806 5808 5810 5812 5815 5815 5820 5820 5821 5822 5823 5825 5825 5826 5827 5827 5828 5828 5828 5828 5829 5829 5830 5830 5831 5832 5832 5833 5834 5835 5835 5836 5837 5837 5838 5838 5839 5839 5839 5839 5839 5839 5839 5839
5800 5803 5805 5807 5809 5811 5815 5816 5817 5818 5820 5822 5823 5823 5824 5824 5825 5825 5825 5825 5826 5826 5826 5827 5828 5828 5829 5830 5831 5832 5832 5833 5834 5834 5834 5835 5835 5835 5835 5835 5835 5835 5835 5834
5794 5797 5800 5802 5804 5806 5812 5812 5813 5815 5816 5818 5819 5820 5821 5821 5822 5823 5822 5822 5822 5823 5823 5824 5825 5825 5826 5827 5828 5829 5829 5830 5830 5830 5831 5831 5831 5831 5831 5831 5831 5831 5830 5830
5788 5790 5793 5796 5798 5802 5806 5807 5809 5811 5814 5814 5815 5816 5817 5818 5819 5819 5819 5819 5819 5820 5820 5821 5821 5822 5823 5824 5824 5825 5826 5826 5827 5827 5827 5827 5827 5827 5827 5827 5827 5826 5826 5825
5782 5785 5788 5790 5793 5799 5801 5802 5805 5807 5808 5809 5811 5812 5813 5814 5814 5815 5815 5815 5816 5816 5817 5818 5818 5819 5819 5820 5821 5822 5822 5823 5823 5823 5823 5823 5823 5823 5823 5822 5822 5822 5821 5821
5776 5780 5782 5786 5790 5792 5794 5797 5799 5801 5803 5805 5806 5807 5808 5809 5810 5811 5811 5812 5812 5813 5813 5814 5814 5815 5816 5817 5817 5818 5818 5819 5819 5819 5819 5819 5818 5818 5818 5818 5817 5817 5816 5815
5769 5772 5775 5779 5782 5786 5789 5791 5794 5796 5798 5800 5801 5803 5804 5805 5806 5806 5807 5808 5809 5809 5810 5810 5811 5811 5812 5813 5813 5814 5814 5814 5814 5814 5814 5814 5814 5813 5813 5813 5812 5812 5811 5810
5762 5765 5768 5772 5776 5779 5782 5785 5788 5790 5792 5794 5796 5798 5799 5800 5801 5802 5803 5803 5804 5805 5806 5806 5807 5808 5808 5808 5809 5809 5809 5809 5810 5810 5809 5809 5809 5809 5808 5808 5807 5806 5805 5804
5755 5758 5761 5765 5769 5772 5776 5779 5781 5784 5786 5788 5790 5792 5793 5794 5796 5796 5797 5798 5799 5800 5801 5802 5802 5803 5803 5804 5804 5804 5804 5804 5804 5804 5804 5804 5804 5803 5803 5802 5801 5800 5799 5798